Wind_Speed
25 23 26 27 29 29 30 33 30 31 31 27 29 30 26 27 26 22 22 21 21 21 22 22 22 22 20 20 14 18 17 17 16 15 12 12 11 11 11 12 15 16 17 17 18 19 20
27 25 22 26 27 26 25 30 32 32 32 30 30 28 26 25 25 24 23 25 21 20 19 18 18 18 17 11 9 13 12 12 12 11 11 11 11 12 12 14 14 14 17 18 19 20 21
27 26 23 22 24 26 29 29 28 29 29 28 28 28 27 28 28 25 23 24 22 18 16 14 12 13 10 12 9 10 10 9 8 9 9 10 10 11 12 12 13 14 14 15 16 17 21
25 27 24 24 24 24 24 23 25 27 27 24 25 26 27 27 27 27 23 18 17 15 12 11 10 8 8 10 9 9 9 9 9 8 9 9 9 10 11 12 11 12 14 14 15 19 21
22 24 24 22 25 26 27 27 22 25 24 24 24 23 23 23 24 23 22 22 17 16 15 14 13 13 12 11 9 8 7 7 7 7 8 8 9 10 10 11 12 13 13 14 17 19 21
22 23 23 20 20 23 25 26 26 23 23 23 23 23 23 22 21 20 19 19 20 18 16 16 13 10 12 10 7 6 5 5 5 6 7 8 9 10 10 11 8 10 14 17 18 19 21
27 23 22 21 19 17 20 23 23 22 22 22 23 22 22 22 21 19 17 16 15 13 9 15 15 15 13 10 8 5 5 4 4 4 6 7 8 9 10 11 13 15 16 19 18 22 27
32 27 24 23 20 18 17 18 19 19 19 18 17 17 17 17 18 18 17 16 19 21 23 22 19 15 14 11 9 6 4 3 2 2 4 4 5 6 7 8 9 11 14 17 19 18 25
34 31 27 25 23 21 19 18 19 19 18 18 18 18 18 21 23 24 23 22 23 23 24 19 15 14 13 11 9 7 6 5 3 2 2 2 2 2 3 4 5 8 12 14 17 19 22
34 33 31 27 24 22 20 19 20 21 20 20 20 20 21 21 22 18 15 12 13 12 10 13 9 9 7 7 9 6 5 3 2 2 1 1 0 2 3 4 7 12 11 13 17 19 10
34 34 32 29 25 23 20 19 18 19 20 21 22 22 20 16 12 9 6 5 3 3 5 5 9 9 10 7 6 6 4 3 3 2 1 1 2 3 4 5 8 10 11 15 18 19 19
34 33 33 31 28 23 20 17 16 17 17 18 18 17 14 12 9 8 5 4 4 3 5 4 6 6 7 7 6 4 6 2 3 2 2 2 4 4 6 8 8 10 12 19 15 10 5
34 32 31 31 30 26 20 17 14 13 13 12 12 11 10 10 9 7 5 5 3 5 7 4 4 4 3 2 2 3 2 4 4 3 3 5 8 8 8 9 9 10 13 6 4 2 5
36 33 32 29 28 27 24 19 13 10 9 8 7 7 8 9 10 8 6 6 5 5 5 6 4 4 3 1 1 1 2 2 3 4 7 4 5 6 8 9 9 13 9 3 5 2 6
37 35 32 30 28 26 25 21 18 11 8 6 4 4 5 5 7 7 5 5 5 7 6 4 1 0 2 2 3 3 4 5 4 5 5 4 4 8 11 12 10 6 5 5 6 7 6
29 33 34 31 27 26 24 22 20 17 13 7 5 5 4 5 6 5 3 5 5 5 3 1 1 2 2 4 4 5 4 4 5 4 8 6 9 9 10 12 14 14 11 4 4 3 5
25 26 29 33 29 26 24 23 21 18 15 13 10 9 9 7 6 5 3 4 5 3 1 1 1 4 4 5 4 7 4 5 8 8 11 10 8 7 10 8 10 10 11 8 6 5 3
22 22 24 25 29 28 24 23 22 19 17 14 12 11 11 9 9 7 7 5 4 2 1 1 2 2 3 5 6 4 4 5 9 10 11 9 9 11 11 13 14 15 15 13 7 5 8
21 21 20 20 23 25 26 24 21 20 20 15 12 12 12 12 8 9 8 7 5 4 3 2 3 4 5 5 4 4 5 7 11 8 6 11 6 10 6 7 16 20 20 20 19 16 16
17 19 21 20 19 20 23 24 23 23 20 19 13 12 9 12 11 9 7 7 6 5 3 4 4 4 5 7 5 6 9 8 9 12 12 13 13 14 15 16 20 22 21 19 21 13 16
15 15 17 19 20 21 20 22 23 24 23 21 19 15 13 11 11 10 8 6 6 6 5 6 4 6 7 5 10 8 9 12 13 14 13 12 17 21 25 26 30 35 36 33 34 37 29
15 14 14 16 17 17 17 19 21 23 23 23 20 17 15 14 12 10 7 9 7 8 8 6 7 9 10 10 11 15 16 15 12 12 12 16 15 27 31 14 12 24 27 26 30 39 48
13 13 13 13 15 14 15 17 19 20 21 24 23 20 17 14 13 12 8 10 11 10 8 9 11 11 12 12 14 15 18 18 20 22 21 22 14 18 10 15 31 17 3 7 12 20 22
13 12 12 11 11 11 11 13 17 19 19 20 22 23 20 18 14 11 9 9 12 11 13 15 15 14 13 14 17 18 21 20 19 20 20 21 19 16 17 16 4 7 21 17 16 20 19
18 16 15 13 11 11 11 12 13 15 17 19 21 21 22 22 19 12 15 12 12 11 11 12 14 15 16 18 18 11 9 10 9 11 16 16 16 9 7 12 26 1 3 6 14 23 5
20 20 19 18 17 16 15 16 16 15 15 15 19 21 22 22 19 17 15 17 18 16 14 13 16 19 19 17 14 6 4 6 5 6 8 12 15 17 8 4 6 9 12 13 14 9 10
22 22 21 21 21 20 19 19 18 19 18 18 18 19 23 23 20 25 21 20 17 13 15 18 20 20 18 16 13 9 7 9 6 6 7 11 14 24 23 11 17 22 19 19 7 16 20
24 24 23 23 24 24 24 25 25 24 23 22 21 22 23 25 24 16 24 23 19 20 20 21 23 11 9 9 7 7 10 10 13 16 15 14 9 13 13 12 13 7 17 21 29 38 41
29 28 27 27 28 28 29 29 29 28 27 25 24 25 25 26 27 26 30 18 20 22 20 18 14 19 15 11 10 11 17 23 28 20 22 18 16 15 16 24 33 40 35 36 38 34 32
Wind_Direction
52 57 70 69 69 68 63 66 78 82 90 96 115 115 129 130 133 139 145 142 145 153 154 155 155 157 159 161 160 168 175 178 179 185 193 203 213 222 230 243 247 248 250 251 249 248 252
50 52 58 67 76 74 72 79 82 94 93 99 103 111 120 123 126 126 127 127 130 135 138 141 145 147 153 174 150 173 179 190 199 206 216 228 234 238 240 238 239 245 246 249 251 253 255
51 52 60 61 68 72 78 90 89 96 93 95 106 109 114 118 118 114 116 121 124 125 125 126 135 144 152 162 152 141 152 179 207 228 233 233 233 234 239 244 242 243 245 249 254 256 260
40 55 62 68 66 69 69 79 88 98 103 102 106 110 116 119 122 126 126 123 123 126 131 133 140 148 164 155 149 165 170 175 180 191 202 208 216 224 228 236 245 245 251 252 253 252 256
45 48 60 70 78 74 73 77 93 89 86 90 101 108 112 119 123 124 125 127 129 131 137 139 139 132 139 146 160 161 165 180 189 202 214 223 226 229 235 241 248 249 252 251 256 259 259
43 49 58 65 69 78 80 78 86 92 95 97 101 103 105 107 108 111 117 124 128 127 127 120 127 130 133 127 141 153 168 177 195 214 227 232 233 237 240 242 247 255 255 258 262 269 270
49 45 52 62 76 74 71 81 88 89 90 95 101 105 107 110 111 112 117 120 124 119 128 111 110 119 118 122 130 142 158 163 183 214 235 240 239 241 251 256 260 265 269 273 273 278 280
48 49 49 54 65 78 86 88 87 87 95 101 106 107 110 115 118 114 111 110 113 112 101 98 99 98 102 105 110 121 136 143 161 216 231 238 239 250 259 266 273 279 285 288 291 288 290
48 49 50 50 54 62 75 92 95 95 94 95 97 99 101 105 108 111 111 112 110 104 93 88 91 91 88 88 96 102 111 115 115 127 162 208 201 243 264 283 292 295 296 293 295 295 291
48 49 52 52 54 60 70 77 90 97 99 98 98 102 103 105 104 104 108 108 101 90 84 56 60 56 84 85 73 85 98 89 87 80 74 101 201 283 298 306 311 313 309 304 307 310 301
50 49 49 52 55 59 68 83 92 100 105 107 107 107 103 94 88 88 93 110 107 59 57 50 63 77 73 77 92 75 82 83 66 51 11 285 249 272 271 287 307 307 308 305 302 298 299
47 48 48 50 52 56 62 76 92 103 106 109 110 106 97 87 80 76 83 88 84 62 64 76 66 71 80 82 85 87 63 52 35 10 343 276 270 275 267 276 298 309 315 309 293 290 277
44 46 48 47 49 52 55 64 80 94 104 106 105 98 91 77 65 64 87 101 81 54 131 103 96 87 101 91 78 60 63 51 32 325 317 309 279 274 275 282 288 299 324 307 326 299 237
43 43 44 46 48 48 50 53 58 77 91 95 92 83 62 58 63 59 67 92 73 115 134 140 126 109 89 64 13 303 283 320 332 339 320 299 280 264 270 268 275 292 292 251 249 282 288
39 39 39 40 43 47 49 47 49 48 54 73 72 59 41 34 39 47 76 71 119 126 124 126 130 314 360 338 325 317 278 280 301 325 337 297 270 275 272 267 275 289 292 270 271 292 291
38 38 37 36 38 42 43 46 45 41 43 35 34 25 21 357 351 3 44 104 129 120 122 91 174 192 312 305 297 320 289 263 280 283 332 293 293 281 267 265 265 255 264 259 254 304 295
29 30 33 36 36 35 38 41 38 42 42 39 40 34 25 20 30 31 56 101 128 142 110 330 304 296 304 313 296 311 268 276 283 277 314 299 271 271 276 256 261 249 246 231 235 219 208
22 26 23 24 31 35 35 36 39 37 36 42 41 41 28 28 41 58 60 61 63 88 67 319 325 323 310 321 313 302 261 261 292 298 308 304 287 275 271 258 258 255 248 241 222 218 228
6 10 17 22 21 26 34 37 34 34 34 34 35 39 34 30 32 33 54 53 51 26 5 347 320 324 321 321 312 286 286 293 295 296 301 306 280 304 278 265 257 254 255 253 244 252 248
354 357 358 4 14 19 23 29 34 33 31 30 29 29 32 29 25 23 22 25 34 16 14 352 325 323 324 317 295 276 293 302 298 297 296 295 268 254 256 280 286 276 276 263 241 229 247
338 347 348 350 357 5 15 21 26 28 28 29 29 22 19 13 16 17 10 8 0 357 351 341 337 334 327 321 313 293 296 300 298 296 297 290 284 290 289 289 281 273 267 255 244 248 250
319 332 337 337 343 350 0 7 15 19 21 20 21 18 15 7 6 358 356 358 346 343 327 322 318 321 316 318 302 303 304 306 294 287 287 293 291 304 307 310 298 288 281 268 259 257 259
303 314 322 324 325 336 345 354 359 5 12 11 13 14 6 359 355 353 350 338 335 326 331 318 306 305 305 306 304 301 298 295 284 281 283 287 290 313 293 312 306 297 33 300 289 283 284
294 300 307 310 309 315 324 334 343 348 355 3 5 4 2 357 345 335 334 333 332 316 314 313 310 305 303 303 303 301 295 286 277 274 268 267 281 300 290 327 320 305 310 311 308 317 302
295 299 303 307 307 306 309 321 332 337 343 347 351 353 352 347 342 331 315 299 315 318 325 326 315 302 302 308 310 312 299 289 277 268 259 260 263 270 274 302 297 281 342 308 312 339 341
288 294 299 302 305 307 308 312 317 326 329 333 337 339 340 340 333 324 315 301 300 297 297 312 315 306 297 298 301 272 273 277 277 279 249 245 241 238 269 280 260 293 290 300 309 317 320
282 285 289 293 296 297 298 300 304 308 312 312 312 318 324 324 327 318 307 298 296 291 292 303 306 309 297 290 279 266 257 261 259 245 250 237 243 236 241 259 272 301 276 274 277 316 305
275 279 284 287 290 292 292 292 295 298 301 302 303 302 306 311 319 309 309 305 286 285 291 291 296 298 281 272 270 272 265 262 265 262 271 272 260 238 214 230 273 332 314 286 300 301 300
275 278 281 283 285 286 288 291 293 293 295 297 297 295 294 291 297 298 299 294 293 279 277 282 265 282 269 251 255 270 271 275 281 279 279 257 259 258 248 268 286 299 303 304 300 297 302
Height
3087 3083 3079 3076 3074 3070 3067 3064 3062 3062 3061 3060 3061 3064 3068 3072 3076 3081 3084 3088 3093 3097 3101 3103 3106 3110 3114 3117 3120 3122 3125 3127 3129 3132 3134 3137 3139 3140 3142 3143 3144 3145 3146 3146 3147 3146 3147
3093 3087 3082 3080 3078 3076 3073 3071 3070 3069 3070 3069 3070 3073 3075 3078 3081 3085 3089 3092 3097 3101 3104 3107 3110 3112 3116 3121 3121 3123 3126 3128 3130 3132 3134 3137 3138 3139 3140 3141 3142 3142 3143 3143 3143 3144 3143
3099 3093 3089 3085 3082 3081 3080 3079 3076 3075 3076 3078 3078 3080 3082 3084 3087 3092 3095 3097 3101 3105 3108 3111 3114 3115 3118 3121 3122 3124 3126 3127 3130 3132 3134 3136 3137 3138 3139 3140 3140 3140 3141 3140 3141 3141 3139
3099 3099 3095 3092 3088 3085 3084 3084 3084 3085 3084 3083 3084 3086 3087 3090 3093 3095 3098 3103 3106 3109 3112 3114 3116 3118 3120 3122 3123 3125 3126 3127 3129 3131 3133 3134 3134 3136 3137 3138 3138 3139 3139 3138 3137 3136 3136
3104 3101 3100 3098 3096 3094 3091 3090 3090 3091 3091 3091 3091 3092 3094 3096 3097 3100 3102 3104 3109 3111 3113 3115 3118 3120 3122 3123 3125 3126 3127 3129 3130 3132 3133 3133 3135 3135 3136 3136 3136 3136 3135 3135 3134 3133 3133
3108 3106 3104 3102 3101 3100 3099 3097 3096 3097 3098 3098 3098 3098 3100 3101 3104 3105 3107 3108 3110 3112 3115 3117 3120 3123 3123 3123 3125 3126 3127 3128 3129 3131 3132 3133 3133 3133 3134 3134 3134 3133 3133 3132 3132 3130 3129
3115 3111 3108 3107 3106 3104 3103 3103 3103 3102 3102 3103 3104 3106 3106 3107 3108 3110 3111 3112 3116 3118 3116 3117 3120 3121 3122 3124 3126 3127 3127 3128 3130 3131 3131 3132 3133 3133 3132 3133 3133 3133 3132 3130 3130 3127 3124
3120 3117 3114 3112 3110 3109 3109 3109 3108 3108 3108 3108 3109 3110 3111 3111 3111 3112 3114 3115 3115 3118 3119 3120 3122 3124 3124 3125 3127 3128 3130 3131 3130 3130 3131 3133 3132 3132 3131 3131 3131 3131 3129 3128 3127 3124 3120
3125 3122 3119 3116 3114 3113 3113 3112 3113 3112 3112 3112 3113 3113 3114 3115 3116 3117 3118 3120 3120 3121 3123 3126 3126 3126 3127 3128 3128 3129 3130 3130 3130 3131 3131 3131 3132 3131 3131 3130 3130 3129 3128 3126 3124 3120 3117
3132 3128 3125 3122 3120 3118 3117 3117 3116 3116 3117 3116 3117 3118 3119 3120 3121 3121 3123 3124 3124 3123 3125 3129 3127 3127 3129 3129 3130 3130 3130 3132 3131 3131 3130 3131 3131 3131 3130 3130 3130 3129 3127 3124 3121 3119 3116
3139 3135 3132 3129 3126 3123 3122 3122 3122 3122 3122 3122 3122 3122 3123 3123 3124 3125 3126 3125 3125 3125 3128 3133 3131 3130 3129 3132 3133 3133 3132 3131 3131 3131 3132 3132 3131 3130 3129 3129 3128 3128 3125 3123 3119 3117 3113
3146 3142 3138 3135 3132 3130 3128 3127 3127 3126 3127 3127 3127 3126 3126 3127 3127 3127 3126 3126 3126 3128 3130 3133 3132 3132 3133 3132 3133 3133 3132 3133 3131 3131 3131 3131 3130 3130 3129 3128 3128 3126 3124 3121 3116 3115 3111
3152 3148 3144 3141 3137 3135 3133 3132 3131 3131 3130 3131 3131 3131 3130 3130 3129 3128 3128 3128 3129 3128 3135 3135 3134 3134 3134 3134 3134 3133 3133 3132 3132 3132 3130 3130 3128 3128 3128 3127 3126 3125 3124 3121 3119 3116 3109
3158 3154 3150 3146 3143 3140 3138 3136 3135 3134 3133 3133 3133 3133 3133 3132 3131 3129 3128 3130 3129 3132 3132 3133 3134 3134 3135 3135 3135 3134 3133 3133 3132 3131 3130 3129 3128 3127 3126 3126 3125 3124 3124 3124 3128 3121 3108
3164 3159 3155 3151 3148 3145 3142 3140 3138 3137 3136 3135 3135 3134 3134 3133 3132 3131 3131 3129 3130 3132 3133 3133 3134 3134 3134 3134 3134 3132 3132 3131 3131 3130 3132 3129 3126 3125 3124 3123 3125 3121 3122 3122 3120 3115 3112
3169 3165 3161 3156 3153 3149 3146 3143 3141 3139 3138 3137 3136 3135 3134 3133 3132 3132 3132 3129 3130 3131 3132 3133 3133 3134 3134 3133 3133 3132 3131 3130 3130 3130 3129 3128 3126 3122 3121 3121 3121 3120 3121 3120 3118 3118 3116
3173 3170 3167 3162 3158 3154 3150 3147 3145 3142 3140 3138 3137 3136 3135 3133 3132 3132 3131 3131 3131 3131 3132 3132 3132 3132 3132 3131 3131 3131 3130 3130 3129 3128 3128 3127 3125 3122 3119 3116 3115 3116 3115 3116 3116 3114 3112
3175 3172 3169 3166 3163 3158 3154 3150 3148 3145 3143 3141 3139 3138 3136 3135 3135 3132 3131 3131 3131 3131 3130 3130 3131 3130 3130 3130 3129 3129 3128 3128 3127 3127 3126 3125 3122 3117 3115 3112 3112 3111 3111 3111 3112 3110 3107
3176 3173 3171 3168 3165 3162 3158 3154 3151 3148 3145 3143 3141 3139 3138 3136 3135 3133 3132 3132 3132 3131 3131 3130 3129 3129 3128 3128 3129 3127 3126 3126 3125 3125 3123 3123 3120 3116 3110 3112 3109 3108 3107 3107 3107 3107 3102
3177 3175 3172 3170 3168 3165 3161 3157 3153 3150 3147 3145 3142 3141 3140 3138 3136 3135 3134 3133 3132 3131 3131 3130 3130 3128 3128 3127 3127 3126 3125 3124 3123 3122 3121 3120 3116 3114 3111 3108 3107 3104 3104 3104 3104 3100 3092
3178 3176 3174 3171 3169 3166 3163 3160 3156 3153 3149 3147 3144 3143 3141 3139 3137 3136 3135 3134 3133 3131 3131 3130 3129 3129 3127 3126 3125 3123 3122 3121 3120 3119 3118 3117 3112 3109 3104 3102 3099 3093 3093 3095 3093 3090 3085
3177 3175 3173 3171 3169 3167 3164 3161 3158 3154 3151 3149 3146 3143 3141 3139 3138 3136 3135 3134 3133 3132 3131 3129 3128 3127 3126 3125 3124 3122 3120 3119 3117 3116 3115 3113 3109 3105 3094 3091 3089 3084 3083 3082 3080 3078 3073
3176 3174 3172 3170 3168 3165 3163 3161 3158 3155 3152 3149 3147 3144 3142 3140 3138 3136 3135 3134 3132 3131 3130 3129 3127 3125 3123 3123 3121 3119 3116 3115 3113 3111 3111 3110 3107 3105 3092 3089 3084 3076 3074 3073 3072 3070 3069
3172 3171 3169 3168 3167 3165 3162 3160 3157 3154 3152 3149 3147 3144 3141 3140 3137 3135 3133 3132 3130 3129 3128 3126 3125 3123 3123 3120 3117 3115 3112 3108 3106 3106 3106 3104 3105 3104 3093 3087 3084 3072 3070 3070 3067 3065 3062
3167 3166 3165 3164 3162 3161 3160 3158 3156 3154 3151 3148 3145 3143 3140 3137 3136 3134 3132 3130 3128 3126 3125 3123 3121 3120 3118 3117 3113 3110 3106 3105 3102 3100 3099 3101 3102 3101 3096 3090 3077 3067 3067 3066 3064 3060 3057
3162 3161 3160 3159 3158 3157 3155 3154 3153 3151 3149 3146 3143 3141 3138 3136 3133 3131 3128 3127 3125 3123 3122 3121 3119 3116 3114 3112 3111 3108 3105 3102 3101 3098 3096 3096 3098 3099 3095 3094 3081 3066 3065 3063 3062 3058 3056
3155 3155 3155 3154 3153 3152 3151 3149 3148 3147 3145 3143 3140 3138 3135 3132 3130 3127 3124 3122 3120 3119 3119 3117 3115 3113 3111 3109 3107 3105 3102 3100 3097 3095 3092 3092 3091 3090 3091 3090 3067 3063 3061 3061 3062 3060 3053
3148 3148 3149 3148 3148 3147 3145 3144 3143 3141 3139 3138 3136 3133 3131 3126 3126 3123 3120 3118 3116 3115 3114 3113 3113 3109 3106 3105 3104 3102 3098 3096 3093 3090 3088 3088 3086 3083 3084 3082 3065 3059 3059 3059 3057 3051 3047
3140 3140 3141 3141 3140 3140 3138 3137 3136 3134 3132 3130 3129 3127 3124 3121 3119 3116 3114 3111 3110 3109 3108 3106 3108 3106 3103 3101 3099 3097 3095 3091 3088 3084 3080 3080 3076 3075 3073 3062 3059 3056 3054 3050 3045 3040 3037